647  
ASUS44 KLZK 280010  
RWRLZK  
 
WEATHER ROUNDUP FOR ARKANSAS  
NATIONAL WEATHER SERVICE LITTLE ROCK AR  
700 PM CDT TUE SEP 27 2022  
 
NOTE: "FAIR" INDICATES FEW OR NO CLOUDS BELOW 12,000 FEET WITH NO  
SIGNIFICANT WEATHER AND/OR S TO VISIBILITY
.  
 
ARZ001-010-029-103-280100-  
NORTHWEST ARKANSAS  
 
CITY SKY/WX TMP DP RH WIND PRES REMARKS
 
FAYETTEVILLE CLEAR 71 51 49 CALM 30.13R  
6HR MIN TEMP: 71; 6HR MAX TEMP: 85;  
 
FORT SMITH CLEAR 81 42 25 E6 30.09R  
6HR MIN TEMP: 81; 6HR MAX TEMP: 89;  
 
HARRISON CLEAR 72 43 35 CALM 30.16R  
6HR MIN TEMP: 72; 6HR MAX TEMP: 83;  
 
BENTONVILLE CLEAR 77 48 35 CALM 30.15R  
6HR MIN TEMP: 77; 6HR MAX TEMP: 83;  
 
ROGERS CLEAR 75 49 39 MISG 30.15R  
6HR MIN TEMP: 75; 6HR MAX TEMP: 83;  
 
SILOAM SPGS CLEAR 79 45 29 CALM 30.14R  
6HR MIN TEMP: 79; 6HR MAX TEMP: 85;  
 
HIGHFILL CLEAR 75 48 38 CALM 30.14R  
6HR MIN TEMP: 75; 6HR MAX TEMP: 85;  
 
SPRINGDALE CLEAR 79 50 36 E3 30.14R  

 
 
ARZ004-005-016-280100-  
NORTH CENTRAL ARKANSAS  
 
CITY SKY/WX TMP DP RH WIND PRES REMARKS
 
BATESVILLE CLEAR 73 44 35 E6 30.14R  
6HR MIN TEMP: 73; 6HR MAX TEMP: 83;  
 
FLIPPIN CLEAR 73 46 38 E3 30.15R  
6HR MIN TEMP: 73; 6HR MAX TEMP: 83;  
 
MTN HOME CLEAR 71 43 36 E3 30.14R  
6HR MIN TEMP: 71; 6HR MAX TEMP: 80;  
 

 
 
ARZ140-141-280100-  
WEST CENTRAL ARKANSAS  
 
CITY SKY/WX TMP DP RH WIND PRES REMARKS
 
MENA CLEAR 77 41 27 CALM 30.13R  
MOUNT IDA CLEAR 77 40 26 CALM 30.10R  
6HR MIN TEMP: 77; 6HR MAX TEMP: 87;  
 

 
 
ARZ009-017-025-026-028-280100-  
NORTHEAST ARKANSAS  
 
CITY SKY/WX TMP DP RH WIND PRES REMARKS
 
JONESBORO CLEAR 73 40 30 N5 30.15R  
6HR MIN TEMP: 73; 6HR MAX TEMP: 82;  
 
NEWPORT CLEAR 70 47 43 N6 30.14R  
6HR MIN TEMP: 70; 6HR MAX TEMP: 81;  
 
WALNUT RIDGE CLEAR 70 50 49 NE8 30.14R  
6HR MIN TEMP: 70; 6HR MAX TEMP: 80;  
 
BLYTHEVILLE CLEAR 69 46 43 CALM 30.13R  
6HR MIN TEMP: 69; 6HR MAX TEMP: 82;  
 

 
 
ARZ032-043-044-280100-  
LITTLE ROCK METRO AREA  
 
CITY SKY/WX TMP DP RH WIND PRES REMARKS
 
LITTLE ROCK CLEAR 75 44 33 SE6 30.12S  
6HR MIN TEMP: 75; 6HR MAX TEMP: 85;  
 
N LTL ROCK NWS N/A 75 42 31 E6 30.14R  
6HR MIN TEMP: 75; 6HR MAX TEMP: 84;  
 
JACKSONVILLE CLEAR 74 44 34 S6 30.10R  
6HR MIN TEMP: 74; 6HR MAX TEMP: 83;  
 
CONWAY CLEAR 75 46 35 CALM 30.09S  

 
 
ARZ033-042-122-123-280100-  
REMAINDER OF CENTRAL ARKANSAS  
 
CITY SKY/WX TMP DP RH WIND PRES REMARKS
 
SEARCY CLEAR 73 43 33 SE3 30.14R  
6HR MIN TEMP: 73; 6HR MAX TEMP: 85;  
 
HOT SPRINGS CLEAR 80 39 23 SE5 30.12R  
6HR MIN TEMP: 80; 6HR MAX TEMP: 86;  
 
RUSSELLVILLE CLEAR 75 44 33 CALM 30.10R  
6HR MIN TEMP: 75; 6HR MAX TEMP: 84;  
 
CLINTON FAIR 75 46 35 CALM 30.12R  

 
 
ARZ036-280100-  
EAST ARKANSAS  
 
CITY SKY/WX TMP DP RH WIND PRES REMARKS
 
WEST MEMPHIS CLEAR 75 42 30 NE5 30.12R  
6HR MIN TEMP: 75; 6HR MAX TEMP: 88;  
 

 
 
ARZ050-053-066-070-072-073-280100-  
SOUTHWEST ARKANSAS  
 
CITY SKY/WX TMP DP RH WIND PRES REMARKS
 
ARKADELPHIA FAIR 72 55 55 CALM 30.12R  
6HR MIN TEMP: 72; 6HR MAX TEMP: 86;  
 
CAMDEN CLEAR 75 48 38 CALM 30.11R  
TEXARKANA CLEAR 78 50 37 SE3 30.12S  
6HR MIN TEMP: 78; 6HR MAX TEMP: 86;  
 
MAGNOLIA CLEAR 70 55 60 CALM 30.11R  
EL DORADO CLEAR 71 56 58 CALM 30.12S  
6HR MIN TEMP: 71; 6HR MAX TEMP: 84;  
 

 
 
ARZ056-057-069-280100-  
SOUTHEAST ARKANSAS  
 
CITY SKY/WX TMP DP RH WIND PRES REMARKS
 
PINE BLUFF CLEAR 76 41 28 CALM 30.13R  
6HR MIN TEMP: 76; 6HR MAX TEMP: 86;  
 
STUTTGART CLEAR 75 45 34 E5 30.13S  
6HR MIN TEMP: 75; 6HR MAX TEMP: 81;  
 
MONTICELLO CLEAR 73 47 39 CALM 30.12R  
6HR MIN TEMP: 73; 6HR MAX TEMP: 84;  
 

 
 
 
 
CLICK HERE TO GO TO PREVIOUS BULLETINS.

The Nexlab AR Page Main Text Page